Weather History for Canby, MN

Change the Weather History Date:

Tuesday, November 20, 2012

  Actual Average (KMML) Record (KMML)
Temperature  
Mean Temperature 43 °F -  
Max Temperature 63 °F 35 °F 62 °F (1990)
Min Temperature 23 °F 20 °F 0 °F (1985)
Degree Days  
Heating Degree Days 22    
Moisture  
Dew Point 27 °F    
Average Humidity 62    
Maximum Humidity 99    
Minimum Humidity 20    
Precipitation  
Precipitation 0.00 in - - ()
Sea Level Pressure  
Sea Level Pressure 30.08 in    
Wind  
Wind Speed 7 mph (SSW)    
Max Wind Speed 18 mph    
Max Gust Speed 28 mph    
Visibility 9 miles    
Events      
Averages and records for this station are not official NWS values.
T = Trace of Precipitation, MM = Missing Value Source: NWS Daily Summary

Daily Weather History Graph

Daily Weather History Graph

Search for Another Location

Airport:

Trip Planner

Search our weather history database for the weather conditions in past years. The results will help you decide how hot, cold, wet, or windy it might be!

Date:

Astronomy

Nov. 20, 2012 Rise Set
Actual Time 7:29 AM CST 4:51 PM CST
Civil Twilight 6:57 AM CST 5:24 PM CST
Nautical Twilight 6:21 AM CST 5:59 PM CST
Astronomical Twilight 5:46 AM CST 6:34 PM CST
Moon 12:55 PM CST (11/20) No Moon Set
Length of Visible Light 10h 26m
Length of Day
9h 22m
First Quarter, 51% of the Moon is Illuminated
Nov 20
First Quarter
Nov 28
Full
Dec 6
Last Quarter
Dec 13
New
Dec 19
First Quarter

Hourly Weather History & Observations

Time (CST) Temp. Windchill Dew Point Humidity Pressure Visibility Wind Dir Wind Speed Gust Speed Precip Events Conditions
12:14 AM 32.2 °F 25.0 °F 30.2 °F 92% 30.15 in 10.0 mi West 8.1 mph - N/A   Clear
12:35 AM 32.0 °F 25.6 °F 30.2 °F 93% 30.15 in 10.0 mi West 6.9 mph - N/A   Clear
12:55 AM 31.3 °F 23.9 °F 29.3 °F 92% 30.15 in 10.0 mi WNW 8.1 mph - N/A   Clear
1:15 AM 30.9 °F 25.2 °F 29.3 °F 94% 30.16 in 10.0 mi West 5.8 mph - N/A   Clear
1:34 AM 30.2 °F 23.4 °F 28.8 °F 94% 30.17 in 10.0 mi West 6.9 mph - N/A   Clear
1:55 AM 30.4 °F 25.6 °F 29.1 °F 95% 30.16 in 10.0 mi West 4.6 mph - N/A   Clear
2:15 AM 31.6 °F 28.3 °F 29.8 °F 93% 30.17 in 10.0 mi West 3.5 mph - N/A   Clear
2:35 AM 29.5 °F 24.5 °F 28.4 °F 96% 30.17 in 7.0 mi West 4.6 mph - N/A   Clear
2:54 AM 29.3 °F 23.2 °F 28.2 °F 96% 30.18 in 7.0 mi West 5.8 mph - N/A   Clear
3:15 AM 29.1 °F 23.0 °F 28.0 °F 96% 30.18 in 7.0 mi West 5.8 mph - N/A   Clear
3:35 AM 28.0 °F 24.2 °F 27.5 °F 98% 30.18 in 7.0 mi West 3.5 mph - N/A   Clear
3:55 AM 28.4 °F 23.3 °F 28.0 °F 99% 30.17 in 7.0 mi WSW 4.6 mph - N/A   Clear
4:15 AM 27.1 °F 21.8 °F 25.9 °F 95% 30.17 in 7.0 mi WSW 4.6 mph - N/A   Clear
4:35 AM 26.4 °F 20.9 °F 26.1 °F 99% 30.17 in 5.0 mi WSW 4.6 mph - N/A   Clear
4:55 AM 25.3 °F 21.1 °F 24.8 °F 98% 30.17 in 5.0 mi WSW 3.5 mph - N/A   Clear
5:15 AM 23.9 °F - 23.4 °F 98% 30.17 in 5.0 mi Calm Calm - N/A   Clear
5:35 AM 23.2 °F 18.7 °F 22.3 °F 96% 30.16 in 7.0 mi WSW 3.5 mph - N/A   Clear
5:55 AM 24.3 °F 18.4 °F 23.9 °F 99% 30.17 in 7.0 mi SW 4.6 mph - N/A   Clear
6:15 AM 25.0 °F 20.7 °F 24.4 °F 98% 30.17 in 7.0 mi SW 3.5 mph - N/A   Clear
6:35 AM 24.8 °F 19.1 °F 24.4 °F 99% 30.16 in 5.0 mi SW 4.6 mph - N/A   Clear
6:54 AM 24.4 °F 17.5 °F 23.7 °F 97% 30.18 in 7.0 mi SW 5.8 mph - N/A   Clear
7:15 AM 23.7 °F - 23.0 °F 97% 30.18 in 7.0 mi Calm Calm - N/A   Clear
7:35 AM 23.0 °F - 22.1 °F 96% 30.18 in 7.0 mi Calm Calm - N/A   Clear
7:55 AM 23.2 °F 18.7 °F 22.5 °F 97% 30.18 in 7.0 mi SSW 3.5 mph - N/A   Clear
8:15 AM 24.3 °F - 23.5 °F 97% 30.18 in 5.0 mi Calm Calm - N/A   Clear
8:35 AM 28.2 °F - 27.3 °F 96% 30.17 in 5.0 mi Calm Calm - N/A   Clear
8:55 AM 31.8 °F 28.5 °F 30.9 °F 96% 30.16 in 5.0 mi SE 3.5 mph - N/A   Clear
9:14 AM 35.1 °F - 32.0 °F 89% 30.16 in 7.0 mi Calm Calm - N/A   Clear
9:35 AM 38.8 °F - 33.3 °F 80% 30.16 in 10.0 mi Calm Calm - N/A   Clear
9:55 AM 41.2 °F 38.2 °F 34.2 °F 76% 30.15 in 10.0 mi SSE 4.6 mph - N/A   Clear
10:15 AM 44.4 °F 41.2 °F 33.4 °F 65% 30.15 in 10.0 mi SSE 5.8 mph - N/A   Clear
10:34 AM 46.6 °F - 33.6 °F 61% 30.15 in 10.0 mi SE 5.8 mph - N/A   Clear
10:55 AM 48.9 °F - 33.8 °F 56% 30.15 in 10.0 mi SE 5.8 mph - N/A   Clear
11:15 AM 52.0 °F - 30.4 °F 44% 30.15 in 10.0 mi SE 4.6 mph - N/A   Clear
11:34 AM 53.8 °F - 27.9 °F 37% 30.14 in 10.0 mi SE 5.8 mph - N/A   Clear
11:55 AM 55.8 °F - 27.7 °F 34% 30.12 in 10.0 mi SE 6.9 mph - N/A   Clear
12:15 PM 58.1 °F - 25.7 °F 29% 30.11 in 10.0 mi SSE 5.8 mph - N/A   Clear
12:55 PM 59.9 °F - 19.8 °F 21% 30.09 in 10.0 mi South 9.2 mph - N/A   Clear
1:15 PM 60.1 °F - 19.8 °F 21% 30.07 in 10.0 mi SSE 9.2 mph - N/A   Clear
1:35 PM 61.3 °F - 19.6 °F 20% 30.06 in 10.0 mi SSE 11.5 mph - N/A   Clear
1:55 PM 61.9 °F - 20.7 °F 21% 30.05 in 10.0 mi SSE 11.5 mph - N/A   Clear
2:14 PM 63.0 °F - 21.2 °F 20% 30.05 in 10.0 mi SSE 11.5 mph 17.3 mph N/A   Clear
2:35 PM 62.6 °F - 22.6 °F 22% 30.05 in 10.0 mi SSE 10.4 mph - N/A   Clear
2:55 PM 61.9 °F - 21.4 °F 21% 30.03 in 10.0 mi South 11.5 mph 18.4 mph N/A   Clear
3:14 PM 61.5 °F - 21.4 °F 21% 30.02 in 10.0 mi South 9.2 mph - N/A   Clear
3:35 PM 60.8 °F - 20.7 °F 21% 30.01 in 10.0 mi SSE 12.7 mph - N/A   Clear
3:55 PM 59.7 °F - 20.3 °F 22% 30.02 in 10.0 mi South 11.5 mph 17.3 mph N/A   Clear
4:15 PM 57.9 °F - 21.9 °F 25% 30.01 in 10.0 mi SSE 9.2 mph - N/A   Clear
4:35 PM 55.8 °F - 22.5 °F 28% 30.01 in 10.0 mi SSE 8.1 mph - N/A   Clear
4:55 PM 53.4 °F - 24.8 °F 33% 30.01 in 10.0 mi SSE 9.2 mph - N/A   Clear
5:15 PM 51.6 °F - 25.5 °F 36% 30.00 in 10.0 mi SSE 9.2 mph - N/A   Clear
5:35 PM 50.0 °F - 26.8 °F 41% 30.00 in 10.0 mi SSE 9.2 mph - N/A   Clear
5:54 PM 50.4 °F - 28.0 °F 42% 30.00 in 10.0 mi SSE 9.2 mph - N/A   Clear
6:15 PM 48.4 °F - 28.4 °F 46% 30.00 in 10.0 mi SSE 8.1 mph - N/A   Clear
6:35 PM 48.2 °F - 29.1 °F 48% 29.99 in 10.0 mi SE 8.1 mph - N/A   Clear
6:55 PM 50.4 °F - 29.3 °F 44% 29.99 in 10.0 mi SSE 9.2 mph - N/A   Clear
7:15 PM 51.8 °F - 29.3 °F 42% 29.99 in 10.0 mi South 12.7 mph 19.6 mph N/A   Clear
7:34 PM 51.8 °F - 29.3 °F 42% 29.98 in 10.0 mi South 16.1 mph 23.0 mph N/A   Clear
7:55 PM 51.8 °F - 29.8 °F 43% 29.98 in 10.0 mi South 13.8 mph 25.3 mph N/A   Clear
8:15 PM 51.8 °F - 30.2 °F 44% 29.97 in 10.0 mi South 15.0 mph 25.3 mph N/A   Clear
8:35 PM 52.2 °F - 31.1 °F 45% 29.96 in 10.0 mi South 16.1 mph 24.2 mph N/A   Clear
8:55 PM 51.8 °F - 31.6 °F 46% 29.96 in 10.0 mi South 13.8 mph 24.2 mph N/A   Clear
9:15 PM 51.6 °F - 32.0 °F 47% 29.95 in 10.0 mi South 16.1 mph 24.2 mph N/A   Clear
9:35 PM 51.3 °F - 32.0 °F 48% 29.95 in 10.0 mi South 16.1 mph 24.2 mph N/A   Clear
9:55 PM 50.9 °F - 32.5 °F 49% 29.94 in 10.0 mi South 15.0 mph 23.0 mph N/A   Clear
10:15 PM 50.9 °F - 32.9 °F 50% 29.93 in 10.0 mi South 16.1 mph 20.7 mph N/A   Clear
10:35 PM 50.9 °F - 33.3 °F 51% 29.93 in 10.0 mi SSW 13.8 mph 20.7 mph N/A   Clear
10:55 PM 51.8 °F - 33.8 °F 50% 29.92 in 10.0 mi SSW 13.8 mph 20.7 mph N/A   Clear
11:14 PM 51.8 °F - 33.8 °F 50% 29.92 in 10.0 mi SSW 18.4 mph 27.6 mph N/A   Clear
11:35 PM 51.6 °F - 34.0 °F 51% 29.92 in 10.0 mi SSW 17.3 mph 25.3 mph N/A   Clear
11:55 PM 50.9 °F - 34.2 °F 53% 29.92 in 10.0 mi SSW 12.7 mph 20.7 mph N/A   Clear